Wind_Speed
16 16 16 16 16 16 17 17 17 16 17 19 19 19 17 19 20 19 17 17 16 16 16 16 16 14 13 13 12 12 12 13 13 13 14 14 14 13 12 12 12 12 11 11
15 16 16 16 17 17 18 18 17 17 18 19 19 19 19 20 21 19 19 18 18 17 17 17 17 15 15 14 14 13 14 15 15 15 15 15 15 14 13 12 12 11 11 11
16 17 18 19 19 20 20 19 18 18 17 19 19 19 20 21 21 22 21 19 19 18 18 17 17 17 16 15 15 14 15 15 16 15 16 16 15 14 13 13 12 12 11 11
17 18 20 21 21 21 21 20 19 19 18 19 19 21 21 22 22 22 21 20 21 19 18 17 17 17 17 16 15 15 16 16 16 15 15 15 14 14 14 13 13 13 12 12
18 19 21 22 21 21 21 20 20 20 20 20 19 21 21 24 24 23 22 21 20 20 18 17 17 18 18 17 17 16 16 16 16 15 15 15 14 14 14 13 13 13 14 13
20 20 20 21 21 21 21 20 20 19 20 22 19 21 24 25 24 23 22 21 21 21 19 18 18 18 19 18 17 16 16 16 16 16 15 15 14 14 14 14 14 15 15 14
19 19 20 21 21 21 21 20 19 20 21 21 19 21 23 21 21 23 22 21 20 20 20 20 19 19 19 18 18 16 16 17 17 17 16 15 14 14 14 14 15 15 15 14
19 20 21 22 22 21 21 21 21 20 19 18 17 21 21 21 21 22 22 22 21 21 21 20 19 19 19 19 19 18 16 16 17 16 16 15 15 15 15 15 15 15 14 14
17 18 19 21 23 22 21 21 20 21 20 19 19 19 20 22 22 23 24 23 23 23 22 21 20 20 19 19 18 19 17 16 16 16 16 16 16 16 15 15 15 15 14 14
20 20 19 21 22 23 22 21 20 21 21 20 19 20 22 22 21 23 24 24 25 24 22 21 20 20 19 19 19 18 18 17 17 17 17 16 16 16 16 16 15 15 14 15
22 22 20 21 21 22 23 23 23 22 21 21 20 20 22 23 24 22 23 25 25 24 24 22 21 20 20 20 20 19 19 18 18 18 18 18 17 18 18 17 17 17 17 16
23 24 24 23 22 22 24 23 24 25 25 24 22 21 22 23 22 23 23 24 25 24 25 25 23 22 21 22 21 21 21 20 20 20 19 19 19 19 18 18 18 18 18 17
24 24 24 23 22 23 24 25 25 25 26 26 24 23 23 23 25 25 25 25 25 24 25 26 26 25 24 23 23 23 23 22 22 22 21 20 19 19 19 19 19 19 19 18
25 25 25 23 22 23 24 24 24 25 25 26 25 24 22 23 25 25 26 26 26 26 25 26 26 26 24 24 24 24 25 24 23 22 22 21 20 20 20 21 21 20 20 20
26 26 25 25 24 25 25 24 23 25 25 25 25 25 24 24 24 25 26 26 25 25 25 25 27 27 25 25 26 26 26 25 24 24 23 23 22 21 21 22 22 22 21 21
25 26 26 27 26 25 26 25 24 24 25 25 24 26 28 27 27 28 28 26 25 25 26 26 26 27 26 26 26 26 26 26 26 25 24 24 23 23 22 23 23 23 23 22
25 25 25 26 26 27 27 26 26 26 25 25 25 25 26 29 30 29 28 26 26 26 26 27 27 27 27 27 27 27 27 27 26 26 25 25 24 24 24 24 24 24 23 23
23 23 24 24 25 26 25 24 25 24 24 26 27 26 25 27 28 27 26 26 26 27 28 28 28 27 27 27 27 27 27 27 26 26 25 25 25 25 24 24 24 24 24 23
22 23 23 24 24 23 21 22 22 23 24 26 27 26 25 26 26 26 27 26 26 27 27 28 27 26 26 26 27 26 27 27 27 26 26 25 24 24 23 23 23 23 22 23
22 23 24 24 24 23 23 22 22 24 26 27 27 27 25 26 27 27 27 27 27 27 27 27 27 27 27 26 26 27 27 27 27 27 26 26 26 25 25 24 24 24 24 24
21 23 23 23 24 24 24 23 23 25 27 27 27 26 26 27 27 26 25 26 27 27 27 27 27 28 27 26 27 28 28 27 27 27 27 28 28 27 26 26 26 26 26 26
21 22 22 23 23 24 24 23 24 25 25 26 27 26 26 27 28 26 26 26 26 27 27 27 27 28 28 28 27 28 28 28 28 28 28 27 27 27 27 27 27 27 27 27
21 22 23 24 23 22 23 23 24 25 26 25 24 25 27 28 27 28 28 28 27 28 27 27 28 28 28 28 28 28 28 28 29 28 28 27 27 28 28 28 29 29 29 29
21 21 22 23 22 23 24 23 24 25 26 26 25 26 27 26 27 27 27 28 28 28 27 27 28 28 28 28 28 28 28 28 29 29 29 28 28 29 29 29 30 30 30 30
19 21 22 23 24 23 25 26 24 25 27 26 27 27 26 25 25 26 27 28 28 28 28 27 28 28 28 28 28 28 28 29 29 29 29 29 29 29 29 30 30 31 30 30
20 20 20 20 20 21 23 25 26 25 26 27 26 26 27 27 27 27 27 28 28 28 28 29 29 28 28 28 28 28 28 29 29 29 29 29 29 29 30 30 31 30 31 31
Wind_Direction
232 234 234 231 235 234 233 238 244 247 248 253 255 254 253 257 259 258 264 268 267 270 273 273 275 281 284 287 290 291 295 300 302 306 308 310 311 310 307 304 305 307 303 300
233 238 237 233 232 238 241 243 244 242 247 255 257 254 247 253 262 264 266 268 269 270 270 270 272 274 279 285 285 287 290 296 298 301 304 306 306 305 308 305 304 306 302 299
236 239 239 238 239 240 243 246 244 244 248 257 260 255 250 252 261 267 265 267 268 268 269 270 271 273 277 280 281 282 288 294 298 300 302 304 304 303 306 305 302 302 302 300
238 238 239 240 241 242 243 246 246 247 248 251 254 257 261 260 259 264 266 267 267 267 268 269 269 272 275 276 278 281 285 290 294 297 301 302 304 303 304 304 299 295 297 297
240 241 243 244 242 243 244 245 245 245 246 250 250 253 255 258 257 256 259 264 268 267 268 268 270 271 273 274 273 277 283 287 290 292 295 298 301 301 301 303 299 297 296 297
238 241 245 246 244 243 245 246 248 247 249 251 249 250 253 252 257 255 255 264 267 267 267 266 267 268 270 273 271 274 280 283 285 285 287 294 297 299 300 302 302 300 301 302
248 245 246 247 244 245 244 243 244 248 249 254 253 250 251 252 254 257 259 263 266 265 266 267 264 266 266 268 270 271 274 277 281 284 288 290 293 296 298 301 303 302 302 299
250 248 249 248 246 244 244 242 244 249 253 258 256 252 255 251 248 250 256 259 264 265 264 264 266 268 269 269 267 267 268 272 277 282 286 289 291 294 296 297 300 300 302 300
244 244 247 249 250 248 243 242 242 249 251 255 255 256 259 257 250 250 253 254 258 262 264 262 259 264 268 269 266 268 267 269 275 280 283 286 288 291 295 297 297 297 298 299
239 241 243 246 248 252 248 244 242 240 244 245 253 260 261 257 252 253 255 253 254 257 262 264 260 261 263 267 265 265 264 265 272 277 280 282 285 289 292 292 296 294 295 297
242 242 241 244 246 246 250 245 242 241 240 244 248 252 258 257 252 252 255 253 255 259 262 264 262 263 265 264 266 266 264 265 269 273 277 280 282 284 288 290 292 291 291 293
244 244 243 244 247 246 247 243 242 241 238 237 244 251 257 258 255 254 255 255 258 260 260 261 261 261 264 265 265 266 265 267 268 270 273 276 280 283 285 287 289 289 289 291
245 246 246 247 248 247 246 242 240 243 244 242 241 248 252 256 259 256 257 258 259 259 260 261 260 260 260 262 263 263 264 267 270 269 271 273 276 279 282 284 285 285 286 288
248 246 245 245 245 246 247 247 246 244 243 245 245 249 253 257 257 259 262 260 257 254 256 259 258 259 260 260 262 263 262 266 269 269 269 271 272 275 279 280 282 283 283 283
250 249 247 244 242 244 246 248 246 246 243 244 248 250 252 256 257 258 259 259 256 256 255 257 258 259 258 258 261 263 263 264 266 268 269 269 270 273 275 277 280 281 280 278
250 250 247 247 245 244 244 246 248 249 246 246 248 251 253 260 258 259 259 257 258 258 257 258 261 260 259 259 262 262 263 263 264 265 268 269 270 270 272 275 277 278 278 278
252 253 250 249 250 247 244 244 250 254 252 246 245 249 254 258 258 259 260 258 259 261 259 260 261 261 260 260 260 261 261 262 265 264 267 267 270 269 271 273 275 277 277 278
252 254 252 250 251 247 245 246 248 247 249 247 247 247 251 255 257 257 257 259 260 260 261 260 259 261 260 259 258 260 261 262 261 260 264 266 269 269 269 271 274 276 277 279
255 253 252 250 251 250 246 244 244 246 247 246 248 250 253 257 260 258 257 259 260 260 260 260 260 260 259 258 257 258 260 261 262 265 268 271 271 270 272 272 273 276 279 281
250 249 251 250 251 248 247 243 242 246 249 247 249 253 253 254 258 259 259 260 261 262 261 260 260 258 258 257 256 257 260 262 264 267 268 271 272 273 274 274 276 277 279 280
250 246 246 248 249 251 247 243 243 245 247 247 249 252 255 257 259 260 260 261 261 262 261 260 260 260 259 258 257 259 260 262 264 266 267 268 270 271 273 275 276 277 279 280
251 249 250 250 249 251 246 243 243 246 249 251 251 253 256 258 260 261 260 260 261 262 260 259 259 259 261 261 260 260 261 262 264 265 267 267 268 270 271 272 274 276 278 279
249 249 251 251 250 251 247 244 246 247 249 254 254 253 256 259 260 260 262 262 262 262 261 260 260 259 259 260 260 262 264 264 264 264 265 267 269 270 271 271 274 275 277 279
248 247 249 251 253 248 248 246 245 248 249 253 256 256 256 258 258 261 261 262 261 263 264 263 262 260 260 260 261 262 263 265 265 265 266 266 269 271 272 272 274 275 276 279
248 250 251 252 254 250 248 248 251 250 250 254 258 257 258 262 260 261 263 263 263 264 267 267 266 263 261 261 261 262 263 264 265 265 266 267 268 269 271 273 275 277 278 281
252 255 253 250 251 251 251 253 256 256 255 257 259 260 260 262 261 262 264 265 265 266 268 268 266 265 264 262 261 261 262 263 264 266 266 267 268 270 271 273 274 276 278 281
Height
5853 5856 5858 5861 5863 5865 5867 5870 5872 5873 5874 5874 5874 5874 5875 5874 5874 5873 5874 5875 5876 5876 5877 5877 5876 5876 5877 5877 5877 5877 5877 5876 5876 5875 5874 5872 5871 5870 5870 5869 5868 5867 5866 5865
5851 5853 5856 5857 5860 5862 5864 5866 5868 5870 5870 5870 5870 5871 5871 5871 5871 5870 5871 5872 5872 5873 5873 5874 5874 5874 5874 5874 5874 5875 5874 5874 5873 5873 5871 5870 5869 5868 5868 5867 5866 5865 5864 5864
5848 5851 5852 5854 5856 5858 5860 5862 5863 5865 5866 5866 5867 5867 5866 5867 5868 5867 5867 5869 5869 5869 5870 5871 5871 5871 5871 5871 5872 5872 5871 5871 5870 5870 5869 5868 5867 5866 5865 5865 5864 5863 5862 5862
5844 5847 5848 5849 5852 5854 5856 5858 5859 5860 5861 5862 5864 5863 5863 5862 5863 5864 5864 5865 5865 5865 5867 5867 5867 5867 5868 5868 5868 5868 5868 5868 5867 5867 5866 5865 5864 5863 5863 5862 5862 5861 5860 5860
5840 5842 5843 5845 5847 5849 5851 5853 5854 5855 5857 5857 5859 5860 5861 5859 5859 5859 5859 5861 5861 5861 5862 5864 5864 5864 5864 5864 5865 5865 5865 5864 5864 5864 5863 5862 5862 5861 5860 5860 5859 5858 5858 5857
5836 5837 5839 5841 5843 5844 5846 5848 5850 5850 5851 5852 5854 5855 5855 5854 5854 5855 5855 5856 5857 5858 5858 5860 5860 5860 5860 5860 5860 5861 5861 5861 5861 5860 5860 5859 5859 5858 5857 5857 5856 5856 5855 5854
5831 5833 5834 5835 5837 5839 5841 5844 5845 5846 5846 5847 5850 5849 5849 5850 5851 5852 5852 5853 5854 5854 5854 5855 5856 5856 5855 5856 5857 5857 5857 5857 5857 5857 5857 5856 5856 5855 5855 5854 5853 5853 5852 5852
5827 5829 5830 5830 5832 5834 5836 5838 5841 5842 5843 5844 5846 5845 5846 5847 5847 5847 5849 5849 5849 5850 5850 5851 5852 5852 5851 5852 5853 5853 5853 5853 5853 5853 5853 5853 5852 5852 5852 5851 5851 5850 5850 5849
5822 5824 5826 5826 5827 5829 5831 5833 5836 5838 5839 5840 5840 5842 5842 5841 5841 5842 5843 5844 5845 5845 5845 5846 5847 5847 5848 5848 5848 5849 5849 5849 5850 5850 5849 5849 5849 5849 5849 5848 5848 5847 5847 5846
5816 5818 5821 5822 5822 5824 5827 5829 5831 5832 5833 5835 5837 5837 5838 5837 5836 5837 5838 5839 5839 5840 5840 5838 5840 5841 5843 5844 5844 5844 5844 5845 5846 5846 5846 5846 5846 5845 5845 5845 5845 5844 5844 5843
5810 5812 5815 5817 5817 5820 5821 5823 5824 5826 5828 5830 5832 5835 5832 5831 5831 5832 5833 5833 5834 5836 5836 5835 5836 5837 5838 5840 5840 5840 5840 5841 5842 5842 5842 5842 5842 5842 5841 5841 5841 5841 5841 5840
5804 5806 5808 5810 5812 5814 5815 5817 5819 5820 5821 5823 5825 5829 5826 5826 5826 5827 5827 5828 5829 5830 5831 5831 5832 5832 5833 5834 5835 5835 5836 5836 5837 5838 5838 5838 5838 5838 5838 5838 5838 5837 5837 5837
5797 5799 5801 5804 5808 5808 5808 5810 5811 5814 5815 5816 5819 5823 5820 5820 5820 5819 5821 5822 5823 5825 5826 5826 5826 5827 5828 5829 5830 5830 5831 5831 5832 5833 5833 5833 5833 5834 5834 5834 5834 5834 5833 5833
5791 5793 5796 5798 5800 5800 5801 5803 5805 5807 5808 5809 5812 5814 5814 5813 5813 5814 5815 5816 5817 5818 5820 5821 5821 5821 5822 5822 5823 5824 5825 5826 5826 5827 5828 5828 5829 5829 5829 5829 5829 5829 5829 5829
5784 5786 5788 5790 5792 5794 5795 5796 5798 5799 5801 5803 5805 5807 5807 5806 5807 5807 5809 5810 5811 5812 5813 5815 5815 5816 5817 5818 5818 5819 5820 5820 5821 5821 5822 5822 5823 5823 5824 5824 5824 5824 5824 5824
5777 5779 5781 5782 5784 5786 5788 5789 5791 5793 5794 5796 5798 5800 5799 5799 5800 5801 5802 5803 5804 5805 5807 5808 5809 5810 5811 5812 5813 5813 5814 5814 5815 5815 5816 5817 5817 5818 5818 5818 5819 5819 5818 5818
5771 5772 5773 5775 5777 5777 5779 5784 5785 5786 5787 5789 5790 5792 5793 5793 5794 5795 5795 5796 5798 5799 5800 5802 5802 5803 5804 5805 5806 5807 5807 5808 5808 5809 5810 5810 5811 5812 5812 5812 5813 5813 5812 5812
5765 5766 5767 5768 5770 5770 5776 5777 5778 5779 5780 5781 5783 5785 5785 5786 5787 5788 5789 5790 5791 5793 5794 5794 5795 5796 5797 5798 5799 5800 5801 5801 5801 5801 5803 5804 5805 5805 5806 5806 5806 5807 5807 5806
5758 5759 5760 5762 5762 5765 5768 5770 5771 5772 5773 5775 5776 5777 5778 5779 5780 5782 5782 5783 5784 5786 5786 5787 5788 5789 5790 5791 5792 5793 5794 5795 5794 5796 5797 5798 5799 5799 5799 5800 5800 5800 5800 5800
5752 5753 5754 5755 5756 5758 5762 5763 5764 5767 5766 5768 5769 5770 5771 5773 5774 5775 5776 5777 5778 5778 5780 5780 5781 5782 5783 5784 5786 5786 5787 5788 5789 5790 5791 5792 5793 5793 5793 5793 5794 5794 5794 5794
5746 5747 5748 5749 5750 5751 5754 5755 5757 5760 5760 5761 5762 5764 5765 5766 5767 5768 5768 5770 5771 5772 5772 5773 5774 5775 5776 5777 5778 5780 5781 5782 5783 5783 5784 5785 5786 5786 5787 5787 5787 5787 5787 5787
5740 5741 5742 5743 5744 5746 5746 5748 5751 5752 5753 5754 5756 5757 5758 5759 5759 5760 5762 5763 5764 5764 5765 5766 5767 5768 5769 5770 5771 5772 5774 5775 5776 5776 5777 5778 5779 5779 5780 5780 5780 5780 5780 5780
5735 5736 5736 5738 5739 5739 5740 5742 5743 5745 5747 5747 5749 5750 5751 5752 5753 5754 5755 5757 5758 5758 5758 5759 5760 5761 5762 5763 5764 5765 5766 5767 5768 5769 5770 5771 5771 5772 5772 5773 5773 5773 5773 5772
5729 5730 5731 5731 5731 5732 5734 5735 5737 5738 5740 5741 5743 5744 5744 5745 5746 5747 5748 5749 5750 5750 5751 5751 5752 5753 5754 5755 5756 5757 5758 5759 5761 5762 5763 5763 5764 5764 5765 5765 5765 5765 5765 5765
5724 5724 5725 5726 5726 5727 5728 5729 5730 5732 5734 5735 5736 5736 5737 5738 5739 5740 5741 5741 5742 5743 5742 5743 5744 5745 5746 5747 5748 5749 5751 5752 5753 5754 5754 5755 5756 5756 5757 5757 5757 5757 5757 5757
5719 5719 5720 5721 5720 5721 5722 5723 5724 5726 5727 5728 5728 5729 5731 5732 5733 5733 5733 5734 5734 5735 5735 5736 5736 5737 5738 5739 5740 5741 5743 5744 5744 5745 5746 5747 5748 5748 5749 5749 5749 5749 5749 5748